| time (UTC) | temp F | wind direction | speed MPH | gust MPH | rain 1hr in | rain 24hr in | rain mn in | humidity % | barometer mb |
| 20260506230028 | 49 | 269 | 0.0 | 3.0 | 0.00 | 0.00 | 0.00 | 70 | 1023.1 |
| 20260506225515 | 49 | 263 | 0.0 | 2.0 | 0.00 | 0.00 | 0.00 | 70 | 1023.1 |
| 20260506225012 | 49 | 267 | 0.0 | 3.0 | 0.00 | 0.00 | 0.00 | 71 | 1023.2 |
| 20260506224535 | 49 | 261 | 0.0 | 3.0 | 0.00 | 0.00 | 0.00 | 70 | 1023.2 |
| 20260506224010 | 49 | 257 | 0.0 | 3.0 | 0.00 | 0.00 | 0.00 | 69 | 1023.3 |
| 20260506223510 | 49 | 266 | 0.0 | 3.0 | 0.00 | 0.00 | 0.00 | 69 | 1023.4 |
| 20260506223027 | 50 | 257 | 0.0 | 3.0 | 0.00 | 0.00 | 0.00 | 67 | 1023.2 |
| 20260506222512 | 50 | 259 | 0.0 | 2.0 | 0.00 | 0.00 | 0.00 | 66 | 1023.2 |
| 20260506222014 | 51 | 241 | 0.0 | 2.0 | 0.00 | 0.00 | 0.00 | 65 | 1023.3 |
| 20260506221529 | 51 | 270 | 0.0 | 1.0 | 0.00 | 0.00 | 0.00 | 64 | 1023.3 |
| 20260506221010 | 51 | 259 | 0.0 | 1.0 | 0.00 | 0.00 | 0.00 | 63 | 1023.2 |
| 20260506220512 | 51 | 257 | 0.0 | 1.0 | 0.00 | 0.00 | 0.00 | 63 | 1023.2 |
| 20260506220035 | 51 | 252 | 0.0 | 1.0 | 0.00 | 0.00 | 0.00 | 63 | 1023.2 |
| 20260506215512 | 51 | 278 | 0.0 | 1.0 | 0.00 | 0.00 | 0.00 | 62 | 1023.3 |
| 20260506215011 | 51 | 242 | 0.0 | 1.0 | 0.00 | 0.00 | 0.00 | 63 | 1023.2 |
| 20260506214528 | 51 | 206 | 0.0 | 3.0 | 0.00 | 0.00 | 0.00 | 65 | 1023.3 |
| 20260506214013 | 50 | 258 | 0.0 | 3.0 | 0.00 | 0.00 | 0.00 | 65 | 1023.3 |
| 20260506213511 | 51 | 263 | 0.0 | 1.0 | 0.00 | 0.00 | 0.00 | 65 | 1023.2 |
| 20260506213029 | 50 | 261 | 0.0 | 3.0 | 0.00 | 0.00 | 0.00 | 66 | 1023.3 |
| 20260506212511 | 50 | 262 | 1.0 | 3.0 | 0.00 | 0.00 | 0.00 | 64 | 1023.2 |
| 20260506212016 | 51 | 285 | 0.0 | 2.0 | 0.00 | 0.00 | 0.00 | 64 | 1023.2 |
| 20260506211534 | 51 | 236 | 0.0 | 2.0 | 0.00 | 0.00 | 0.00 | 63 | 1023.1 |
| 20260506211013 | 51 | 257 | 0.0 | 2.0 | 0.00 | 0.00 | 0.00 | 63 | 1023.1 |
| 20260506210510 | 50 | 252 | 0.0 | 2.0 | 0.00 | 0.00 | 0.00 | 63 | 1023.1 |
| 20260506210033 | 51 | 296 | 0.0 | 1.0 | 0.00 | 0.00 | 0.00 | 63 | 1023.1 |
| 20260506205513 | 51 | 248 | 0.0 | 3.0 | 0.00 | 0.00 | 0.00 | 63 | 1023.0 |
| 20260506205011 | 51 | 265 | 0.0 | 3.0 | 0.00 | 0.00 | 0.00 | 61 | 1023.1 |
| 20260506204535 | 51 | 256 | 0.0 | 4.0 | 0.00 | 0.00 | 0.00 | 61 | 1022.9 |
| 20260506204011 | 50 | 305 | 0.0 | 5.0 | 0.00 | 0.00 | 0.00 | 59 | 1022.9 |
| 20260506203511 | 50 | 314 | 1.0 | 5.0 | 0.00 | 0.00 | 0.00 | 60 | 1022.8 |
| 20260506203031 | 51 | 294 | 2.0 | 5.0 | 0.00 | 0.00 | 0.00 | 60 | 1022.7 |
| 20260506202510 | 51 | 285 | 1.0 | 4.0 | 0.00 | 0.00 | 0.00 | 60 | 1022.7 |
| 20260506202012 | 50 | 286 | 0.0 | 5.0 | 0.00 | 0.00 | 0.00 | 61 | 1022.7 |
| 20260506201538 | 50 | 280 | 1.0 | 5.0 | 0.00 | 0.00 | 0.00 | 60 | 1022.5 |
| 20260506201012 | 51 | 299 | 1.0 | 4.0 | 0.00 | 0.00 | 0.00 | 61 | 1022.4 |
| 20260506200512 | 51 | 284 | 1.0 | 7.0 | 0.00 | 0.00 | 0.00 | 61 | 1022.5 |
| 20260506200032 | 51 | 294 | 0.0 | 5.0 | 0.00 | 0.00 | 0.00 | 63 | 1022.6 |
| 20260506195513 | 51 | 293 | 2.0 | 5.0 | 0.00 | 0.00 | 0.00 | 62 | 1022.6 |
| 20260506195011 | 50 | 290 | 1.0 | 5.0 | 0.00 | 0.00 | 0.00 | 60 | 1022.7 |
| 20260506194528 | 50 | 277 | 0.0 | 5.0 | 0.00 | 0.00 | 0.00 | 61 | 1022.7 |
| 20260506194010 | 50 | 295 | 2.0 | 5.0 | 0.00 | 0.00 | 0.00 | 62 | 1022.5 |
| 20260506193514 | 50 | 315 | 2.0 | 5.0 | 0.00 | 0.00 | 0.00 | 62 | 1022.5 |
| 20260506193031 | 50 | 306 | 2.0 | 9.0 | 0.00 | 0.00 | 0.00 | 62 | 1022.6 |
| 20260506192512 | 50 | 281 | 3.0 | 9.0 | 0.00 | 0.00 | 0.00 | 61 | 1022.4 |
| 20260506192010 | 50 | 291 | 2.0 | 7.0 | 0.00 | 0.00 | 0.00 | 62 | 1022.4 |
| 20260506191533 | 50 | 314 | 3.0 | 5.0 | 0.00 | 0.00 | 0.00 | 61 | 1022.4 |
| 20260506191013 | 50 | 276 | 1.0 | 6.0 | 0.00 | 0.00 | 0.00 | 61 | 1022.4 |
| 20260506190512 | 50 | 301 | 4.0 | 6.0 | 0.00 | 0.00 | 0.00 | 61 | 1022.3 |
| 20260506190031 | 50 | 321 | 2.0 | 8.0 | 0.00 | 0.00 | 0.00 | 63 | 1022.2 |
| 20260506185512 | 49 | 306 | 4.0 | 9.0 | 0.00 | 0.00 | 0.00 | 62 | 1022.1 |
| 20260506185013 | 50 | 309 | 3.0 | 9.0 | 0.00 | 0.00 | 0.00 | 62 | 1022.2 |
| 20260506184533 | 50 | 313 | 1.0 | 5.0 | 0.00 | 0.00 | 0.00 | 62 | 1022.1 |
| 20260506184011 | 50 | 321 | 0.0 | 2.0 | 0.00 | 0.00 | 0.00 | 62 | 1022.1 |
| 20260506183510 | 50 | 331 | 0.0 | 4.0 | 0.00 | 0.00 | 0.00 | 60 | 1022.2 |
| 20260506183032 | 51 | 348 | 0.0 | 4.0 | 0.00 | 0.00 | 0.00 | 61 | 1022.2 |
| 20260506182512 | 51 | 5 | 0.0 | 5.0 | 0.00 | 0.00 | 0.00 | 60 | 1022.1 |
| 20260506182012 | 50 | 302 | 1.0 | 4.0 | 0.00 | 0.00 | 0.00 | 60 | 1022.1 |
| 20260506181532 | 49 | 319 | 1.0 | 4.0 | 0.00 | 0.00 | 0.00 | 62 | 1022.0 |
| 20260506181013 | 48 | 326 | 0.0 | 4.0 | 0.00 | 0.00 | 0.00 | 64 | 1021.9 |
| 20260506180514 | 49 | 327 | 1.0 | 4.0 | 0.00 | 0.00 | 0.00 | 64 | 1022.0 |
| 20260506180033 | 48 | 334 | 0.0 | 8.0 | 0.00 | 0.00 | 0.00 | 64 | 1022.0 |
| 20260506175513 | 49 | 331 | 0.0 | 8.0 | 0.00 | 0.00 | 0.00 | 65 | 1022.1 |
| 20260506175012 | 48 | 322 | 3.0 | 8.0 | 0.00 | 0.00 | 0.00 | 64 | 1022.0 |
| 20260506174533 | 49 | 294 | 5.0 | 8.0 | 0.00 | 0.00 | 0.00 | 61 | 1022.0 |
| 20260506174010 | 49 | 327 | 1.0 | 6.0 | 0.00 | 0.00 | 0.00 | 63 | 1021.9 |
| 20260506173512 | 48 | 289 | 1.0 | 5.0 | 0.00 | 0.00 | 0.00 | 66 | 1021.9 |
| 20260506173031 | 48 | 285 | 1.0 | 5.0 | 0.00 | 0.00 | 0.00 | 66 | 1022.0 |
| 20260506172515 | 49 | 305 | 3.0 | 5.0 | 0.00 | 0.00 | 0.00 | 63 | 1022.1 |
| 20260506172013 | 49 | 317 | 0.0 | 4.0 | 0.00 | 0.00 | 0.00 | 66 | 1022.1 |
| 20260506171539 | 48 | 290 | 0.0 | 4.0 | 0.00 | 0.00 | 0.00 | 67 | 1021.9 |
| 20260506171011 | 47 | 298 | 2.0 | 6.0 | 0.00 | 0.00 | 0.00 | 67 | 1021.9 |
| 20260506170514 | 47 | 291 | 3.0 | 6.0 | 0.00 | 0.00 | 0.00 | 66 | 1021.9 |
| 20260506170038 | 47 | 296 | 2.0 | 5.0 | 0.00 | 0.00 | 0.00 | 67 | 1022.0 |
| 20260506165512 | 47 | 309 | 1.0 | 5.0 | 0.00 | 0.00 | 0.00 | 68 | 1022.1 |
| 20260506165012 | 47 | 314 | 1.0 | 5.0 | 0.00 | 0.00 | 0.00 | 70 | 1022.0 |
| 20260506164528 | 47 | 294 | 1.0 | 5.0 | 0.00 | 0.00 | 0.00 | 69 | 1022.0 |
| 20260506164013 | 47 | 307 | 1.0 | 5.0 | 0.00 | 0.00 | 0.00 | 70 | 1021.9 |
| 20260506163512 | 47 | 316 | 3.0 | 6.0 | 0.00 | 0.00 | 0.00 | 68 | 1022.0 |
| 20260506163035 | 47 | 313 | 2.0 | 4.0 | 0.00 | 0.00 | 0.00 | 69 | 1021.9 |
| 20260506162509 | 46 | 326 | 1.0 | 5.0 | 0.00 | 0.00 | 0.00 | 69 | 1021.8 |
| 20260506162014 | 46 | 317 | 1.0 | 5.0 | 0.00 | 0.00 | 0.00 | 69 | 1021.7 |
| 20260506161532 | 46 | 325 | 1.0 | 5.0 | 0.00 | 0.00 | 0.00 | 71 | 1021.6 |
| 20260506161013 | 46 | 309 | 2.0 | 7.0 | 0.00 | 0.00 | 0.00 | 70 | 1021.6 |
| 20260506160511 | 46 | 305 | 2.0 | 6.0 | 0.00 | 0.00 | 0.00 | 70 | 1021.6 |
| 20260506160045 | 46 | 302 | 2.0 | 9.0 | 0.00 | 0.00 | 0.00 | 71 | 1021.6 |
| 20260506155512 | 46 | 313 | 4.0 | 9.0 | 0.00 | 0.00 | 0.00 | 70 | 1021.5 |
| 20260506155012 | 46 | 326 | 3.0 | 8.0 | 0.00 | 0.00 | 0.00 | 71 | 1021.4 |
| 20260506154533 | 46 | 333 | 3.0 | 8.0 | 0.00 | 0.00 | 0.00 | 71 | 1021.4 |
| 20260506154012 | 46 | 327 | 2.0 | 6.0 | 0.00 | 0.00 | 0.00 | 71 | 1021.4 |
| 20260506153513 | 46 | 315 | 2.0 | 9.0 | 0.00 | 0.00 | 0.00 | 70 | 1021.3 |
| 20260506153031 | 46 | 320 | 4.0 | 10.0 | 0.00 | 0.00 | 0.00 | 70 | 1021.3 |
| 20260506152515 | 46 | 314 | 3.0 | 9.0 | 0.00 | 0.00 | 0.00 | 70 | 1021.3 |
| 20260506152011 | 46 | 296 | 4.0 | 9.0 | 0.00 | 0.00 | 0.00 | 69 | 1021.4 |
| 20260506151540 | 46 | 312 | 4.0 | 12.0 | 0.00 | 0.00 | 0.00 | 69 | 1021.4 |
| 20260506151014 | 46 | 297 | 3.0 | 11.0 | 0.00 | 0.00 | 0.00 | 69 | 1021.3 |
| 20260506150513 | 46 | 307 | 4.0 | 8.0 | 0.00 | 0.00 | 0.00 | 70 | 1021.3 |
| 20260506150028 | 46 | 311 | 3.0 | 8.0 | 0.00 | 0.00 | 0.00 | 71 | 1021.3 |
| 20260506145511 | 46 | 313 | 3.0 | 10.0 | 0.00 | 0.00 | 0.00 | 70 | 1021.3 |
| 20260506145013 | 46 | 311 | 4.0 | 9.0 | 0.00 | 0.00 | 0.00 | 70 | 1021.1 |
| 20260506144530 | 46 | 306 | 5.0 | 9.0 | 0.00 | 0.00 | 0.00 | 72 | 1021.1 |
| 20260506144013 | 46 | 317 | 4.0 | 10.0 | 0.00 | 0.00 | 0.00 | 72 | 1021.2 |
| 20260506143514 | 46 | 294 | 5.0 | 10.0 | 0.00 | 0.00 | 0.00 | 73 | 1021.0 |
| 20260506143032 | 46 | 298 | 4.0 | 8.0 | 0.00 | 0.00 | 0.00 | 72 | 1021.0 |
| 20260506142511 | 46 | 302 | 4.0 | 8.0 | 0.00 | 0.00 | 0.00 | 72 | 1020.9 |
| 20260506142015 | 46 | 303 | 4.0 | 6.0 | 0.00 | 0.00 | 0.00 | 72 | 1020.9 |
| 20260506141529 | 46 | 296 | 3.0 | 6.0 | 0.00 | 0.00 | 0.00 | 72 | 1020.9 |
| 20260506141011 | 46 | 321 | 4.0 | 8.0 | 0.00 | 0.00 | 0.00 | 72 | 1020.9 |
| 20260506140513 | 46 | 303 | 4.0 | 8.0 | 0.00 | 0.00 | 0.00 | 72 | 1020.8 |
| 20260506140033 | 46 | 302 | 3.0 | 8.0 | 0.00 | 0.00 | 0.00 | 72 | 1020.8 |
| 20260506135513 | 46 | 309 | 4.0 | 8.0 | 0.00 | 0.00 | 0.00 | 71 | 1020.7 |
| 20260506135013 | 46 | 317 | 4.0 | 8.0 | 0.00 | 0.00 | 0.00 | 72 | 1020.7 |
| 20260506134533 | 46 | 311 | 3.0 | 9.0 | 0.00 | 0.00 | 0.00 | 72 | 1020.6 |
| 20260506134014 | 46 | 315 | 3.0 | 9.0 | 0.00 | 0.00 | 0.00 | 71 | 1020.6 |
| 20260506133512 | 46 | 310 | 3.0 | 9.0 | 0.00 | 0.00 | 0.00 | 71 | 1020.5 |
| 20260506133036 | 46 | 290 | 3.0 | 9.0 | 0.00 | 0.00 | 0.00 | 72 | 1020.4 |
| 20260506132515 | 46 | 319 | 3.0 | 5.0 | 0.00 | 0.00 | 0.00 | 72 | 1020.3 |
| 20260506132012 | 46 | 300 | 3.0 | 5.0 | 0.00 | 0.00 | 0.00 | 72 | 1020.2 |
| 20260506131542 | 46 | 312 | 3.0 | 5.0 | 0.00 | 0.00 | 0.00 | 72 | 1020.1 |
| 20260506131016 | 46 | 300 | 2.0 | 6.0 | 0.00 | 0.00 | 0.00 | 72 | 1020.2 |
| 20260506130517 | 46 | 327 | 2.0 | 8.0 | 0.00 | 0.00 | 0.00 | 72 | 1020.2 |
| 20260506130030 | 46 | 326 | 1.0 | 5.0 | 0.00 | 0.00 | 0.00 | 72 | 1020.2 |
| 20260506125511 | 46 | 313 | 3.0 | 10.0 | 0.00 | 0.00 | 0.00 | 73 | 1020.2 |
| 20260506125016 | 46 | 306 | 4.0 | 10.0 | 0.00 | 0.00 | 0.00 | 72 | 1020.2 |
| 20260506124533 | 46 | 298 | 3.0 | 7.0 | 0.00 | 0.00 | 0.00 | 74 | 1020.3 |
| 20260506124013 | 46 | 304 | 3.0 | 6.0 | 0.00 | 0.00 | 0.00 | 76 | 1020.3 |
| 20260506123512 | 46 | 309 | 3.0 | 10.0 | 0.00 | 0.00 | 0.00 | 76 | 1020.1 |
| 20260506123040 | 46 | 304 | 4.0 | 10.0 | 0.00 | 0.00 | 0.00 | 76 | 1020.0 |
| 20260506122514 | 46 | 310 | 4.0 | 9.0 | 0.00 | 0.00 | 0.00 | 76 | 1020.1 |
| 20260506122016 | 46 | 313 | 4.0 | 7.0 | 0.00 | 0.00 | 0.00 | 76 | 1020.0 |
| 20260506121539 | 46 | 303 | 3.0 | 7.0 | 0.00 | 0.00 | 0.00 | 77 | 1020.0 |
| 20260506121014 | 46 | 286 | 2.0 | 8.0 | 0.00 | 0.00 | 0.00 | 76 | 1019.9 |
| 20260506120517 | 46 | 310 | 3.0 | 8.0 | 0.00 | 0.00 | 0.00 | 76 | 1019.9 |
| 20260506120035 | 46 | 317 | 3.0 | 9.0 | 0.00 | 0.00 | 0.00 | 76 | 1019.8 |
| 20260506115512 | 46 | 304 | 3.0 | 8.0 | 0.00 | 0.00 | 0.00 | 75 | 1019.7 |
| 20260506115013 | 46 | 302 | 4.0 | 8.0 | 0.00 | 0.00 | 0.00 | 75 | 1019.8 |
| 20260506114541 | 46 | 293 | 2.0 | 8.0 | 0.00 | 0.00 | 0.00 | 75 | 1019.8 |
| 20260506114011 | 46 | 314 | 4.0 | 8.0 | 0.00 | 0.00 | 0.00 | 75 | 1019.7 |
| 20260506113514 | 46 | 300 | 2.0 | 5.0 | 0.00 | 0.00 | 0.00 | 76 | 1019.8 |
| 20260506113035 | 46 | 307 | 2.0 | 7.0 | 0.00 | 0.00 | 0.00 | 76 | 1019.7 |
| 20260506112517 | 46 | 308 | 3.0 | 8.0 | 0.00 | 0.00 | 0.00 | 76 | 1019.6 |
| 20260506112014 | 46 | 311 | 3.0 | 8.0 | 0.00 | 0.00 | 0.00 | 76 | 1019.6 |
| 20260506111532 | 46 | 321 | 3.0 | 8.0 | 0.00 | 0.00 | 0.00 | 76 | 1019.6 |
| 20260506111015 | 46 | 313 | 3.0 | 8.0 | 0.00 | 0.00 | 0.00 | 76 | 1019.5 |
| 20260506110515 | 46 | 302 | 3.0 | 9.0 | 0.00 | 0.00 | 0.00 | 76 | 1019.5 |
| 20260506110036 | 46 | 351 | 2.0 | 9.0 | 0.00 | 0.00 | 0.00 | 76 | 1019.5 |
| 20260506105519 | 46 | 319 | 1.0 | 5.0 | 0.00 | 0.00 | 0.00 | 77 | 1019.5 |
| 20260506105014 | 46 | 310 | 2.0 | 5.0 | 0.00 | 0.00 | 0.00 | 77 | 1019.5 |
| 20260506104546 | 46 | 310 | 2.0 | 6.0 | 0.00 | 0.00 | 0.00 | 77 | 1019.4 |
| 20260506104011 | 46 | 311 | 3.0 | 8.0 | 0.00 | 0.00 | 0.00 | 76 | 1019.3 |
| 20260506103517 | 46 | 305 | 3.0 | 8.0 | 0.00 | 0.00 | 0.00 | 77 | 1019.3 |
| 20260506103034 | 46 | 313 | 3.0 | 8.0 | 0.00 | 0.00 | 0.00 | 77 | 1019.3 |
| 20260506102515 | 46 | 311 | 2.0 | 4.0 | 0.00 | 0.00 | 0.00 | 77 | 1019.4 |
| 20260506102013 | 46 | 323 | 2.0 | 8.0 | 0.00 | 0.00 | 0.00 | 77 | 1019.3 |
| 20260506101545 | 46 | 319 | 3.0 | 8.0 | 0.00 | 0.00 | 0.00 | 77 | 1019.4 |
| 20260506101011 | 46 | 313 | 3.0 | 9.0 | 0.00 | 0.00 | 0.00 | 77 | 1019.4 |
| 20260506100512 | 46 | 315 | 3.0 | 9.0 | 0.00 | 0.00 | 0.00 | 78 | 1019.4 |
| 20260506100046 | 46 | 313 | 3.0 | 8.0 | 0.00 | 0.00 | 0.00 | 78 | 1019.3 |
| 20260506095513 | 46 | 294 | 3.0 | 6.0 | 0.00 | 0.00 | 0.00 | 78 | 1019.4 |
| 20260506095013 | 46 | 311 | 2.0 | 6.0 | 0.00 | 0.00 | 0.00 | 78 | 1019.3 |
| 20260506094549 | 45 | 320 | 3.0 | 6.0 | 0.00 | 0.00 | 0.00 | 78 | 1019.3 |
| 20260506094012 | 45 | 315 | 2.0 | 8.0 | 0.00 | 0.00 | 0.00 | 78 | 1019.2 |
| 20260506093515 | 46 | 315 | 2.0 | 8.0 | 0.00 | 0.00 | 0.00 | 78 | 1019.1 |
| 20260506093042 | 46 | 324 | 2.0 | 6.0 | 0.00 | 0.00 | 0.00 | 77 | 1019.2 |
| 20260506092520 | 46 | 311 | 3.0 | 8.0 | 0.00 | 0.00 | 0.00 | 77 | 1019.2 |
| 20260506092016 | 46 | 307 | 3.0 | 8.0 | 0.00 | 0.00 | 0.00 | 77 | 1019.1 |
| 20260506091541 | 46 | 318 | 2.0 | 5.0 | 0.00 | 0.00 | 0.00 | 77 | 1019.0 |
| 20260506091013 | 46 | 321 | 3.0 | 6.0 | 0.00 | 0.00 | 0.00 | 76 | 1019.1 |
| 20260506090515 | 46 | 321 | 3.0 | 6.0 | 0.00 | 0.00 | 0.00 | 76 | 1018.9 |
| 20260506090048 | 46 | 331 | 3.0 | 6.0 | 0.00 | 0.00 | 0.00 | 75 | 1018.9 |
| 20260506085515 | 46 | 315 | 2.0 | 7.0 | 0.00 | 0.00 | 0.00 | 75 | 1018.9 |
| 20260506085012 | 46 | 307 | 3.0 | 9.0 | 0.00 | 0.00 | 0.00 | 75 | 1018.9 |
| 20260506084543 | 46 | 324 | 3.0 | 9.0 | 0.00 | 0.00 | 0.00 | 75 | 1018.9 |
| 20260506084015 | 46 | 306 | 3.0 | 9.0 | 0.00 | 0.00 | 0.00 | 75 | 1018.9 |
| 20260506083513 | 46 | 323 | 3.0 | 11.0 | 0.00 | 0.00 | 0.00 | 74 | 1018.9 |
| 20260506083049 | 46 | 311 | 4.0 | 11.0 | 0.00 | 0.00 | 0.00 | 74 | 1018.8 |
| 20260506082515 | 46 | 328 | 4.0 | 13.0 | 0.00 | 0.00 | 0.00 | 74 | 1018.9 |
| 20260506082017 | 46 | 322 | 4.0 | 13.0 | 0.00 | 0.00 | 0.00 | 74 | 1018.8 |
| 20260506081536 | 46 | 310 | 4.0 | 9.0 | 0.00 | 0.00 | 0.00 | 73 | 1018.8 |
| 20260506081015 | 46 | 320 | 4.0 | 9.0 | 0.00 | 0.00 | 0.00 | 74 | 1018.8 |
| 20260506080516 | 46 | 306 | 3.0 | 14.0 | 0.00 | 0.00 | 0.00 | 75 | 1018.8 |
| 20260506073513 | 46 | 311 | 5.0 | 8.0 | 0.00 | 0.00 | 0.00 | 74 | 1018.6 |
| 20260506073053 | 46 | 314 | 4.0 | 9.0 | 0.00 | 0.00 | 0.00 | 74 | 1018.6 |
| 20260506072514 | 47 | 311 | 4.0 | 11.0 | 0.00 | 0.00 | 0.00 | 74 | 1018.6 |
| 20260506072016 | 47 | 311 | 5.0 | 11.0 | 0.00 | 0.00 | 0.00 | 74 | 1018.6 |
| 20260506071556 | 46 | 323 | 4.0 | 10.0 | 0.00 | 0.00 | 0.00 | 74 | 1018.5 |
| 20260506071014 | 46 | 317 | 3.0 | 6.0 | 0.00 | 0.00 | 0.00 | 74 | 1018.6 |
| 20260506070515 | 46 | 313 | 3.0 | 9.0 | 0.00 | 0.00 | 0.00 | 74 | 1018.4 |
| 20260506062515 | 47 | 326 | 4.0 | 12.0 | 0.00 | 0.00 | 0.00 | 71 | 1018.0 |
| 20260506062016 | 47 | 321 | 4.0 | 12.0 | 0.00 | 0.00 | 0.00 | 71 | 1018.0 |
| 20260506061549 | 47 | 316 | 5.0 | 14.0 | 0.00 | 0.00 | 0.00 | 69 | 1017.9 |
| 20260506061019 | 47 | 318 | 5.0 | 15.0 | 0.00 | 0.00 | 0.00 | 69 | 1018.0 |
| 20260506060518 | 47 | 329 | 7.0 | 15.0 | 0.00 | 0.00 | 0.00 | 68 | 1017.9 |
| 20260506051017 | 48 | 315 | 7.0 | 11.0 | 0.00 | 0.00 | 0.00 | 71 | 1017.8 |
| 20260506050518 | 48 | 313 | 6.0 | 13.0 | 0.00 | 0.00 | 0.00 | 71 | 1017.9 |
| 20260506045017 | 48 | 305 | 4.0 | 9.0 | 0.00 | 0.00 | 0.00 | 73 | 1017.8 |
| 20260506044552 | 48 | 309 | 6.0 | 11.0 | 0.00 | 0.00 | 0.00 | 72 | 1017.7 |
| 20260506044022 | 48 | 301 | 7.0 | 11.0 | 0.00 | 0.00 | 0.00 | 72 | 1017.7 |
| 20260506043512 | 48 | 300 | 6.0 | 10.0 | 0.00 | 0.00 | 0.00 | 72 | 1017.6 |
| 20260506043027 | 48 | 284 | 7.0 | 11.0 | 0.00 | 0.00 | 0.00 | 72 | 1017.6 |
| 20260506042515 | 48 | 288 | 6.0 | 10.0 | 0.00 | 0.00 | 0.00 | 72 | 1017.4 |
| 20260506042009 | 48 | 296 | 7.0 | 10.0 | 0.00 | 0.00 | 0.00 | 71 | 1017.4 |
| 20260506041528 | 48 | 308 | 6.0 | 10.0 | 0.00 | 0.00 | 0.00 | 71 | 1017.2 |
| 20260506041011 | 48 | 278 | 5.0 | 12.0 | 0.00 | 0.00 | 0.00 | 71 | 1017.1 |
| 20260506040515 | 48 | 282 | 7.0 | 12.0 | 0.00 | 0.00 | 0.00 | 71 | 1017.0 |
| 20260506040029 | 48 | 287 | 6.0 | 14.0 | 0.00 | 0.00 | 0.00 | 71 | 1016.7 |
| 20260506035514 | 49 | 280 | 6.0 | 14.0 | 0.00 | 0.00 | 0.00 | 71 | 1016.6 |
| 20260506035011 | 49 | 309 | 7.0 | 11.0 | 0.00 | 0.00 | 0.00 | 70 | 1016.5 |
| 20260506034528 | 49 | 289 | 7.0 | 11.0 | 0.00 | 0.00 | 0.00 | 70 | 1016.3 |
| 20260506034011 | 49 | 285 | 4.0 | 8.0 | 0.00 | 0.00 | 0.00 | 70 | 1016.4 |
| 20260506033509 | 49 | 281 | 5.0 | 10.0 | 0.00 | 0.00 | 0.00 | 71 | 1016.3 |
| 20260506033033 | 50 | 292 | 5.0 | 10.0 | 0.00 | 0.00 | 0.00 | 70 | 1016.3 |
| 20260506032512 | 50 | 274 | 4.0 | 9.0 | 0.00 | 0.00 | 0.00 | 68 | 1016.2 |
| 20260506032011 | 50 | 290 | 4.0 | 9.0 | 0.00 | 0.00 | 0.00 | 68 | 1016.3 |
| 20260506031532 | 50 | 304 | 3.0 | 7.0 | 0.00 | 0.00 | 0.00 | 68 | 1016.3 |
| 20260506031009 | 51 | 282 | 4.0 | 9.0 | 0.00 | 0.00 | 0.00 | 68 | 1016.4 |
| 20260506030511 | 51 | 296 | 4.0 | 9.0 | 0.00 | 0.00 | 0.00 | 66 | 1016.2 |
| 20260506030050 | 52 | 290 | 5.0 | 8.0 | 0.00 | 0.00 | 0.00 | 65 | 1016.1 |
| 20260506025511 | 52 | 296 | 3.0 | 7.0 | 0.00 | 0.00 | 0.00 | 65 | 1016.0 |
| 20260506025012 | 52 | 286 | 3.0 | 6.0 | 0.00 | 0.00 | 0.00 | 66 | 1016.1 |
| 20260506024531 | 52 | 280 | 4.0 | 9.0 | 0.00 | 0.00 | 0.00 | 66 | 1016.0 |
| 20260506024011 | 52 | 290 | 3.0 | 8.0 | 0.00 | 0.00 | 0.00 | 65 | 1016.0 |
| 20260506023513 | 53 | 280 | 3.0 | 7.0 | 0.00 | 0.00 | 0.00 | 65 | 1015.9 |
| 20260506023027 | 53 | 304 | 2.0 | 5.0 | 0.00 | 0.00 | 0.00 | 64 | 1015.9 |
| 20260506022510 | 53 | 261 | 2.0 | 7.0 | 0.00 | 0.00 | 0.00 | 63 | 1015.9 |
| 20260506022010 | 53 | 281 | 2.0 | 5.0 | 0.00 | 0.00 | 0.00 | 63 | 1015.9 |
| 20260506021528 | 53 | 302 | 3.0 | 5.0 | 0.00 | 0.00 | 0.00 | 61 | 1015.9 |
| 20260506021012 | 53 | 293 | 2.0 | 7.0 | 0.00 | 0.00 | 0.00 | 62 | 1016.0 |
| 20260506020515 | 54 | 293 | 3.0 | 5.0 | 0.00 | 0.00 | 0.00 | 62 | 1015.9 |
| 20260506020028 | 54 | 291 | 3.0 | 7.0 | 0.00 | 0.00 | 0.00 | 61 | 1015.8 |
| 20260506015517 | 54 | 279 | 3.0 | 7.0 | 0.00 | 0.00 | 0.00 | 60 | 1015.8 |
| 20260506015010 | 54 | 295 | 3.0 | 7.0 | 0.00 | 0.00 | 0.00 | 61 | 1015.7 |
| 20260506014528 | 55 | 271 | 3.0 | 6.0 | 0.00 | 0.00 | 0.00 | 59 | 1015.8 |
| 20260506014008 | 55 | 281 | 3.0 | 6.0 | 0.00 | 0.00 | 0.00 | 59 | 1015.6 |
| 20260506013511 | 55 | 290 | 2.0 | 8.0 | 0.00 | 0.00 | 0.00 | 57 | 1015.6 |
| 20260506013031 | 55 | 279 | 3.0 | 8.0 | 0.00 | 0.00 | 0.00 | 55 | 1015.3 |
| 20260506012509 | 56 | 267 | 3.0 | 8.0 | 0.00 | 0.00 | 0.00 | 55 | 1015.2 |
| 20260506012013 | 56 | 305 | 4.0 | 8.0 | 0.00 | 0.00 | 0.00 | 54 | 1015.2 |
| 20260506011536 | 56 | 297 | 4.0 | 11.0 | 0.00 | 0.00 | 0.00 | 55 | 1015.2 |
| 20260506011015 | 56 | 292 | 4.0 | 8.0 | 0.00 | 0.00 | 0.00 | 54 | 1015.3 |
| 20260506010511 | 57 | 283 | 3.0 | 6.0 | 0.00 | 0.00 | 0.00 | 57 | 1015.4 |
| 20260506010030 | 57 | 268 | 1.0 | 4.0 | 0.00 | 0.00 | 0.00 | 55 | 1015.4 |
| 20260506005513 | 57 | 279 | 2.0 | 8.0 | 0.00 | 0.00 | 0.00 | 55 | 1015.4 |
| 20260506005011 | 57 | 296 | 3.0 | 8.0 | 0.00 | 0.00 | 0.00 | 56 | 1015.5 |
| 20260506004543 | 58 | 294 | 3.0 | 6.0 | 0.00 | 0.00 | 0.00 | 55 | 1015.3 |
| 20260506004012 | 57 | 298 | 4.0 | 7.0 | 0.00 | 0.00 | 0.00 | 53 | 1015.4 |
| 20260506003511 | 58 | 284 | 2.0 | 5.0 | 0.00 | 0.00 | 0.00 | 55 | 1015.5 |
| 20260506003033 | 58 | 302 | 3.0 | 6.0 | 0.00 | 0.00 | 0.00 | 57 | 1015.5 |
| 20260506002511 | 58 | 288 | 3.0 | 6.0 | 0.00 | 0.00 | 0.00 | 58 | 1015.4 |
| 20260506002017 | 58 | 304 | 3.0 | 6.0 | 0.00 | 0.00 | 0.00 | 56 | 1015.4 |
| 20260506001531 | 58 | 282 | 2.0 | 7.0 | 0.00 | 0.00 | 0.00 | 55 | 1015.4 |
| 20260506001010 | 59 | 286 | 1.0 | 6.0 | 0.00 | 0.00 | 0.00 | 56 | 1015.5 |
| 20260506000513 | 59 | 287 | 3.0 | 9.0 | 0.00 | 0.00 | 0.00 | 54 | 1015.5 |
| 20260506000030 | 58 | 297 | 4.0 | 9.0 | 0.00 | 0.00 | 0.00 | 56 | 1015.4 |
| 20260505235510 | 58 | 282 | 5.0 | 8.0 | 0.00 | 0.00 | 0.00 | 58 | 1015.3 |
| 20260505235013 | 58 | 311 | 5.0 | 8.0 | 0.00 | 0.00 | 0.00 | 59 | 1015.3 |
| 20260505234533 | 59 | 286 | 5.0 | 9.0 | 0.00 | 0.00 | 0.00 | 57 | 1015.3 |
| 20260505234013 | 59 | 304 | 5.0 | 11.0 | 0.00 | 0.00 | 0.00 | 57 | 1015.3 |
| 20260505233516 | 59 | 285 | 6.0 | 11.0 | 0.00 | 0.00 | 0.00 | 57 | 1015.2 |
| 20260505233029 | 58 | 289 | 4.0 | 9.0 | 0.00 | 0.00 | 0.00 | 59 | 1015.3 |
| 20260505232509 | 58 | 275 | 1.0 | 6.0 | 0.00 | 0.00 | 0.00 | 62 | 1015.3 |
| 20260505232009 | 58 | 269 | 1.0 | 4.0 | 0.00 | 0.00 | 0.00 | 62 | 1015.4 |
| 20260505231529 | 58 | 246 | 1.0 | 7.0 | 0.00 | 0.00 | 0.00 | 64 | 1015.4 |
| 20260505231013 | 57 | 271 | 0.0 | 5.0 | 0.00 | 0.00 | 0.00 | 65 | 1015.4 |
| 20260505230510 | 56 | 263 | 1.0 | 7.0 | 0.00 | 0.00 | 0.00 | 66 | 1015.3 |